Total_Precipitation_Accumulation
0.74 0.73 0.77 0.79 0.83 0.88 0.95 0.97 1.02 1.08 1.15 1.16 1.13 1.09 0.99 0.93 0.92 0.94 0.96 1.05 1.06 1.05 1.13 1.16 1.22 1.31 1.44 1.51 1.54 1.60 1.79 1.94 1.81 1.71 1.57 1.42 1.23 1.05 0.86 0.80 0.72 0.62 0.51
0.72 0.72 0.75 0.78 0.78 0.78 0.80 0.80 0.81 0.87 0.90 0.91 0.92 0.98 1.00 0.99 0.95 0.93 0.90 0.88 0.93 0.95 1.01 1.10 1.16 1.29 1.37 1.36 1.46 1.54 1.73 1.94 2.00 2.12 2.16 1.89 1.56 1.29 1.14 0.95 0.70 0.55 0.52
0.66 0.71 0.77 0.76 0.74 0.77 0.81 0.81 0.79 0.79 0.80 0.80 0.81 0.84 0.86 0.94 1.05 1.06 1.03 1.03 1.06 0.98 1.02 1.11 1.10 1.14 1.21 1.23 1.35 1.49 1.64 1.79 1.95 2.05 2.18 1.98 1.76 1.45 1.38 1.15 0.90 0.76 0.53
0.57 0.72 0.84 0.90 0.90 0.91 0.86 0.87 0.85 0.81 0.82 0.80 0.76 0.76 0.79 0.81 0.88 1.01 1.06 1.06 1.02 0.97 0.96 0.96 0.93 0.94 1.01 1.08 1.15 1.31 1.46 1.60 1.72 1.77 1.91 1.97 1.96 1.88 1.75 1.48 1.27 1.04 0.79
0.58 0.80 0.90 0.89 0.84 0.83 0.81 0.88 0.86 0.78 0.76 0.80 0.72 0.69 0.74 0.79 0.77 0.79 0.90 0.93 0.92 0.89 0.90 0.82 0.71 0.72 0.77 0.80 0.86 1.07 1.22 1.35 1.51 1.61 1.75 1.91 2.00 2.06 1.89 1.73 1.57 1.39 1.11
0.55 0.66 0.70 0.75 0.78 0.74 0.69 0.67 0.69 0.72 0.71 0.71 0.65 0.64 0.64 0.59 0.62 0.59 0.61 0.69 0.73 0.73 0.76 0.76 0.69 0.60 0.57 0.59 0.62 0.73 0.88 1.02 1.24 1.47 1.65 1.86 1.93 1.87 1.95 1.89 1.78 1.64 1.49
0.48 0.53 0.60 0.71 0.74 0.67 0.58 0.62 0.68 0.70 0.69 0.67 0.61 0.57 0.55 0.54 0.46 0.41 0.41 0.51 0.59 0.60 0.62 0.66 0.60 0.54 0.50 0.46 0.52 0.61 0.66 0.72 0.83 1.12 1.38 1.50 1.49 1.45 1.64 1.82 1.75 1.64 1.63
0.49 0.56 0.62 0.73 0.73 0.69 0.66 0.65 0.66 0.66 0.66 0.66 0.61 0.58 0.59 0.55 0.46 0.38 0.34 0.34 0.46 0.54 0.54 0.57 0.58 0.59 0.53 0.51 0.50 0.55 0.54 0.53 0.55 0.65 0.78 0.90 1.04 1.14 1.32 1.61 1.81 1.72 1.71
0.50 0.61 0.71 0.80 0.79 0.75 0.72 0.69 0.67 0.65 0.61 0.60 0.63 0.63 0.62 0.58 0.45 0.36 0.34 0.40 0.48 0.49 0.50 0.52 0.54 0.57 0.56 0.48 0.46 0.49 0.51 0.52 0.48 0.51 0.55 0.66 0.79 0.90 1.03 1.22 1.45 1.67 1.91
0.60 0.69 0.75 0.80 0.84 0.81 0.79 0.76 0.72 0.71 0.64 0.59 0.61 0.64 0.62 0.64 0.48 0.32 0.29 0.40 0.53 0.56 0.61 0.60 0.50 0.47 0.47 0.37 0.37 0.42 0.42 0.43 0.40 0.45 0.50 0.53 0.58 0.69 0.77 0.90 1.01 1.21 1.46
0.64 0.72 0.80 0.88 0.86 0.83 0.85 0.86 0.84 0.80 0.79 0.72 0.65 0.64 0.65 0.62 0.50 0.32 0.28 0.39 0.56 0.65 0.65 0.64 0.59 0.45 0.36 0.32 0.30 0.35 0.38 0.36 0.39 0.44 0.51 0.55 0.55 0.60 0.64 0.70 0.81 0.86 0.92
0.68 0.77 0.88 0.95 0.80 0.75 0.90 0.93 0.92 0.93 0.93 0.88 0.82 0.73 0.70 0.66 0.50 0.37 0.31 0.34 0.47 0.64 0.73 0.69 0.58 0.45 0.37 0.34 0.29 0.30 0.30 0.29 0.34 0.41 0.47 0.50 0.51 0.53 0.60 0.65 0.71 0.77 0.83
0.77 0.87 0.91 0.93 0.97 1.00 0.97 0.98 1.00 0.98 1.00 0.98 0.95 0.90 0.84 0.81 0.69 0.46 0.37 0.35 0.41 0.54 0.63 0.69 0.62 0.43 0.37 0.38 0.37 0.31 0.26 0.26 0.32 0.35 0.39 0.45 0.43 0.45 0.55 0.67 0.76 0.77 0.78
0.88 0.93 0.97 1.00 1.02 1.07 1.13 1.11 1.08 1.03 1.05 1.06 1.00 0.97 0.96 0.95 0.87 0.70 0.58 0.48 0.47 0.49 0.54 0.57 0.61 0.54 0.43 0.44 0.46 0.38 0.30 0.32 0.34 0.33 0.36 0.42 0.44 0.46 0.53 0.60 0.68 0.74 0.78
0.98 1.01 1.05 1.07 1.10 1.14 1.15 1.10 1.03 1.00 0.90 0.93 0.96 0.94 0.96 0.95 0.85 0.75 0.72 0.69 0.64 0.60 0.59 0.65 0.66 0.68 0.60 0.55 0.56 0.50 0.43 0.43 0.40 0.39 0.38 0.42 0.48 0.49 0.51 0.56 0.59 0.62 0.66
1.10 1.03 1.02 1.01 1.05 1.10 1.10 0.96 0.74 0.67 0.60 0.57 0.62 0.65 0.67 0.63 0.57 0.55 0.59 0.59 0.59 0.61 0.60 0.70 0.77 0.78 0.73 0.70 0.67 0.63 0.61 0.55 0.49 0.46 0.44 0.42 0.45 0.48 0.48 0.52 0.55 0.55 0.54
1.07 1.03 0.96 0.92 0.93 0.93 0.98 1.00 0.91 0.75 0.66 0.59 0.49 0.45 0.48 0.44 0.40 0.42 0.49 0.55 0.58 0.61 0.63 0.72 0.80 0.82 0.80 0.81 0.74 0.68 0.69 0.62 0.57 0.55 0.51 0.49 0.49 0.49 0.48 0.48 0.52 0.55 0.54
1.00 0.92 0.88 0.89 0.87 0.84 0.85 0.89 0.89 0.93 0.91 0.78 0.59 0.48 0.43 0.36 0.33 0.34 0.44 0.55 0.61 0.61 0.68 0.76 0.83 0.81 0.82 0.84 0.79 0.74 0.73 0.66 0.60 0.57 0.53 0.51 0.50 0.52 0.51 0.47 0.46 0.49 0.50
1.01 0.89 0.83 0.80 0.80 0.80 0.78 0.79 0.82 0.88 0.93 0.91 0.75 0.63 0.51 0.37 0.33 0.36 0.41 0.49 0.59 0.65 0.70 0.75 0.77 0.77 0.80 0.78 0.73 0.70 0.71 0.65 0.58 0.53 0.49 0.49 0.49 0.53 0.54 0.50 0.48 0.51 0.50
1.01 0.88 0.81 0.76 0.74 0.78 0.82 0.79 0.78 0.86 0.89 0.87 0.81 0.66 0.48 0.41 0.42 0.43 0.44 0.49 0.56 0.62 0.65 0.67 0.67 0.67 0.68 0.67 0.64 0.64 0.68 0.65 0.59 0.54 0.49 0.47 0.48 0.51 0.53 0.50 0.46 0.46 0.47
0.97 0.87 0.77 0.71 0.69 0.70 0.76 0.77 0.74 0.78 0.81 0.78 0.69 0.55 0.41 0.39 0.45 0.48 0.50 0.51 0.54 0.57 0.59 0.63 0.63 0.61 0.58 0.58 0.57 0.56 0.61 0.60 0.53 0.47 0.45 0.44 0.45 0.50 0.50 0.46 0.43 0.41 0.43
0.96 0.93 0.82 0.74 0.69 0.67 0.69 0.73 0.74 0.75 0.74 0.72 0.62 0.48 0.40 0.41 0.44 0.46 0.46 0.45 0.45 0.50 0.54 0.62 0.63 0.60 0.57 0.56 0.52 0.49 0.51 0.48 0.43 0.42 0.41 0.40 0.43 0.47 0.47 0.44 0.42 0.40 0.40
0.90 0.90 0.84 0.74 0.66 0.65 0.65 0.69 0.74 0.71 0.65 0.65 0.58 0.46 0.41 0.45 0.42 0.42 0.42 0.40 0.41 0.45 0.47 0.52 0.55 0.54 0.51 0.48 0.46 0.42 0.40 0.40 0.39 0.36 0.34 0.35 0.37 0.40 0.40 0.40 0.42 0.41 0.40
0.85 0.85 0.80 0.71 0.64 0.62 0.63 0.67 0.65 0.56 0.49 0.50 0.51 0.44 0.44 0.45 0.40 0.36 0.31 0.31 0.35 0.35 0.34 0.35 0.35 0.36 0.37 0.38 0.37 0.35 0.32 0.32 0.34 0.35 0.31 0.31 0.31 0.33 0.35 0.37 0.40 0.41 0.40
0.82 0.81 0.77 0.70 0.64 0.58 0.57 0.57 0.55 0.50 0.43 0.40 0.41 0.39 0.40 0.38 0.36 0.31 0.25 0.27 0.31 0.30 0.27 0.25 0.26 0.28 0.28 0.27 0.27 0.25 0.25 0.26 0.28 0.30 0.30 0.29 0.31 0.34 0.34 0.35 0.39 0.42 0.40
0.77 0.74 0.70 0.66 0.58 0.52 0.50 0.51 0.47 0.41 0.36 0.32 0.32 0.33 0.33 0.33 0.34 0.30 0.25 0.26 0.26 0.25 0.23 0.21 0.22 0.23 0.22 0.20 0.19 0.18 0.19 0.21 0.24 0.25 0.26 0.26 0.31 0.35 0.34 0.31 0.32 0.36 0.36